sat.trackr.live / text

‹ back to catalog

STARLINK-36419

NORAD 67584 · 2026-016Z

PAYLOAD ACTIVE UNKNOWN

§ Identity

Operator
Country
US
Launch date
2026-01-25
Launch site
AFWTR
Launch vehicle
Mass (kg)
RCS (m²)

Purposes: comms

External: N2YO · Heavens-Above · Gunter

§ Orbital elements

Epoch: 2026-09-19T09:27:09.410688Z

Period
93.91 min
Inclination
97.2866°
Eccentricity
0.0000567
Mean motion
15.33448186 rev/d
Perigee alt
465.1 km
Apogee alt
465.9 km
Semi-major
6,843.7 km
B*
3.1544e-4
RAAN
321.1137°
Arg perigee
93.4714°
Mean anomaly
266.6593°
Rev number
3,655

§ Raw data

STARLINK-364191 67584U 26016Z   26262.39385892  .00010123  00000+0  31544-3 0  99962 67584  97.2866 321.1137 0000567  93.4714 266.6593 15.33448186 36553

JSON: /api/v1/satellites/67584 · /tle

For live sub-satellite position, see the globe view (requires WebGL).

§ Visibility from observer

Set your observer location to see the next 7 days of passes ≥ 10°. The values pass through the URL so the page stays shareable.

No JS? Fill the form by hand. The geolocation button needs JavaScript.